Погода Сосново-Озерское

Погода Сосново-Озерское : погода сейчас, прогноз погоды и архив. Всё, что Вы хотите узнать о погоде Сосново-Озерское!

Поиск расширенной информации на нашем сайте:

Другие новости

Новости СМИ2

Главная страница сайта

Новости сайта

03.07.2017

Напоминаем, что на нашем специализированном сайте Метеоцентр.Азия вы можете получить высокодетализированные автоматические прогнозы погоды по пунктам России, СНГ и мира в авиационном формате (включающие направление и скорость ветра, видимость, явления погоды, количество и форму облачности, нижнюю и верхнюю границу облачности).

Рекомендуем: Ремонт квартир Харьков

Погода Сосново-Озерское - сегодня

Время (UTC), дата Ветер
(°,м/с) 
Видим.   Явления Облачность Т
(°С)
Тd
(°С)
f(%) Тe
(°С)
Pmin
(гПа)
dP
(гПа)
Po
(мм)
O2
(г/м3)
Тmin Tmax R s Состояние
почвы
18 18.01.18 290 (З) 10-14{17}  н/о  слаб. ливневой снег  10/5 600 м кучево-дожд., средняя 
[Cb cap|Ac und]
-25 -29 69 -36  1022.7  1.8             
21 18.01.18 280 (З) 7-12{17}  н/о  позёмок{ливн. осадки}  3/3 600 м кучево-дожд., средняя 
[Cb calv|Ac cuf]
-27.9 -33.7 58 -37  1026.2  1.6  675  305           
00 19.01.18 280 (З) 7{14}  н/о  {ливн. осадки}  3/0 верхняя 
[Ci sp]
-29.5 -35.4 57 -39  1028.7  1.5  676  307  -29.5    0.0  равномерный
сухой снег
100% 
03 19.01.18 280 (З) 7{13}  20000 м    ясно 
-28.5 -34.6 56 -38  1029.2  0.9  677  306  -30.1         
06 19.01.18 270 (З) 20000 м    ясно 
-25.9 -33.6 48 -33  1028.9  0.9  678  303           
09 19.01.18 290 (З) 8-10{11}  н/о    ясно 
-26.9 -34.3 49 -37  1030.8  1.2  679  305           
12 19.01.18 240 (ЮЗ) 2{10}  н/о    ясно 
-29.3 -35.6 55 -33  1034.2  1.9  680  309    -25.5       
15 19.01.18 230 (ЮЗ) н/о    ясно 
-30.6 -36 59 -36  1035.7  0.6  680  311           
18 19.01.18 200 (Ю) н/о    ясно 
-32 -36.6 64 -38  1036.8  0.3  681  312           
21 19.01.18 200 (Ю) н/о    ясно 
-35.9 -39.5 69 -40  1038.7  -0.3  680  318           
00 20.01.18 160 (Ю) н/о    8/0 средняя, верхняя 
[Ac lent|Ci sp]
-35.5 -39.2 69 -42  1039.4  0.9  681  317  -36.1      равномерный
сухой снег
100% 
03 20.01.18 270 (З) 20000 м    10/0 верхняя 
[Cs]
-30.2 -34 69 -31  1037.5  0.9  682  311           
06 20.01.18 250 (З) 20000 м    ясно 
-26.3 -33.7 50 -31  1035.7  0.3  682  306           
09 20.01.18 260 (З) 20000 м    3/0 верхняя 
[Ci sp]
-28.2 -34.6 54 -35  1037.7  0.9  683  308           
12 20.01.18 280 (З) н/о    3/0 верхняя 
[Ci sp]
-31.7 -36.9 60 -38  1041.3  1.5  684  313    -26.1       
15 20.01.18 240 (ЮЗ) н/о    ясно 
-32.3 -37.1 62 -36  1043  1.2  685  315           
18 20.01.18 210 (ЮЗ) н/о    ясно 
-34.4 -38.8 64 -39  1044.7  0.4  685  318           
21 20.01.18 190 (Ю) н/о    ясно 
-37.3 -41.2 67 -44  1046.3  -0.1  685  321           
00 21.01.18 210 (ЮЗ) н/о    ясно 
-35.4 -39.3 67 -42  1045.8  0.5  685  319  -38.4      равномерный
сухой снег
100% 
03 21.01.18 250 (З) 20000 м    ясно 
-31.4 -36.3 62 -39  1044  0.5  686  314           
06 21.01.18 250 (З) 20000 м    ясно 
-28.9 -36.2 49 -37  1041.3  -1.1  685  310           
09 21.01.18 260 (З) 20000 м    3/0 верхняя 
[Ci sp]
-30.1 -36.7 53 -39  1041.5  -0.4  684  312           
12 21.01.18 240 (ЮЗ) н/о    ясно 
-31.8 -38 54 -39  1042.2  -0.2  684  314    -28.6       
15 21.01.18 240 (ЮЗ) н/о    8/0 верхняя 
[Ci sp]
-33 -38.1 60 -42  1041.8  -1  683  315           
18 21.01.18 240 (ЮЗ) н/о    8/0 верхняя 
[Ci sp]
-33.1 -37.9 62 -42  1040  -1.5  682  315           
Время (UTC), дата Ветер
(°,м/с) 
Видим.   Явления Облачность Т
(°С)
Тd
(°С)
f(%) Тe
(°С)
Pmin
(гПа)
dP
(гПа)
Po
(мм)
O2
(г/м3)
Тmin Tmax R s Состояние
почвы

Для получения пояснительной информации подведите курсор к названию столбца.

ПОГОДА Сосново-Озерское - архив

Всё, что Вы хотите узнать о погоде Сосново-Озерское - удобно и подробно!

Выберите нужную дату (начиная с 1 января 2015* года) и нажмите кнопку "Найти".
Будут отображены архивные сводки погоды по пункту Сосново-Озерское, начиная с указанной даты.


Отображать данные в формате CSV (для использования в таблицах Excel)


Внимание! Наш архив погоды предназначен исключительно для личного некоммерческого использования в познавательных целях. Если Вам необходимы официальные справки о состоянии погоды (для производственных, юридических, коммерческих и т.п. целей), обращайтесь в органы Росгидромета.

*Примечание: данная дата относится к архиву по метеостанциям СССР (Россия, СНГ, Балтия).
Архив по метеостанциям Зарубежной Европы и Азии (кроме Китая) хранится 10 дней, по другим регионам земного шара (Китай, Африка, Америка, Австралия, Океания) - 1 день.

Сосново-Озерское - район местоположения метеостанции


Название, широта, долгота, высота метеостанции:
Сосново-Озерское 52.5°ш. 111.6°д. 952 м над ур. моря [Российская Федерация]

Дополнительная информация

В oтличие oт бoльшинства пoгoдных сайтoв мы публикуем пoдрoбную метеoинфoрмацию в детальнoм прoфессиoнальнoм фoрмате.

Характеристики температуры и влажнoсти вoздуха измеряются на высoте 2 м в тени вдали oт зданий и деревьев.
Скoрoсть ветра измеряется на высoте 10 м (на урoвне рoста челoвека скoрoсть ветра ниже в 1.5-2 раза). Если метеoстанция нахoдится в гoрoде или в лесу, тo скoрoсть ветра занижена на 2-4 м/с пo сравнению с oткрытым местoм. Скoрoсть ветра над акватoриями крупных рек и oзёр, а также на вершинах хoлмoв на 2-5 м/с выше, чем в oбычных услoвиях.
Атмoсфернoе давление в разных тoчках местнoсти мoжет значительнo oтличаться oт давления на метеoстанции, в зависимoсти oт услoвий рельефа (при пoдъёме на 10 м давление пoнижается примернo на 1 мм рт.ст.).